User: anonymous   Login
Location: Caltech
(34.1382°N, 118.1253°W)
Time: 05:39:01
(UTC-07:00)
Language:

Meteor 1-11 Rocket - Orbit

View from above orbital plane
View from above orbital plane
View from above satellite
View from above satellite

Ground track
Ground track

The orbit data is extracted from the following two-line orbital elements,

1  5918U 72022B   17144.94277096 +.00000143 +00000-0 +78404-4 0  9992
2  5918 081.2365 348.3614 0059034 032.7509 327.7296 14.05821440314469
Epoch (UTC): 24 May 2017 22:37:35
Eccentricity: 0.0059034
inclination: 81.2365°
perigee height: 831 km
apogee height: 916 km
right ascension of ascending node: 348.3614°
argument of perigee: 32.7509°
revolutions per day: 14.05821440
mean anomaly at epoch: 327.7296°
orbit number at epoch: 31446

The dashed part of the orbit path shows where the satellite is in the earth's shadow,  

DLR